sat.trackr.live / text

‹ back to catalog

SKYSAT-C7

NORAD 42991 · 2017-068E

PAYLOAD ACTIVE UNKNOWN

§ Identity

Operator
Country
US
Launch date
2017-10-31
Launch site
AFWTR
Launch vehicle
Mass (kg)
RCS (m²)

Purposes: earth_obs

External: N2YO · Heavens-Above · Gunter

§ Orbital elements

Epoch: 2026-09-20T04:43:00.612768Z

Period
93.59 min
Inclination
97.4659°
Eccentricity
0.0006769
Mean motion
15.38580391 rev/d
Perigee alt
445.7 km
Apogee alt
454.9 km
Semi-major
6,828.4 km
B*
2.0543e-4
RAAN
42.3217°
Arg perigee
120.5052°
Mean anomaly
239.6862°
Rev number
49,697

§ Raw data

SKYSAT-C71 42991U 17068E   26263.19653487  .00007745  00000+0  20543-3 0  99982 42991  97.4659  42.3217 0006769 120.5052 239.6862 15.38580391496973

JSON: /api/v1/satellites/42991 · /tle

For live sub-satellite position, see the globe view (requires WebGL).

§ Visibility from observer

Set your observer location to see the next 7 days of passes ≥ 10°. The values pass through the URL so the page stays shareable.

No JS? Fill the form by hand. The geolocation button needs JavaScript.